Dewpoint
0 0 0 -0 -1 -1 -1 -0 4 7 9 9 10 11 12 13 13 12 12 12 11 11 11 10 9 9 9 1 -2 -1 -0 -1 -1 -4 -10 -11 -11 -11 -10 -9 -7 -7 -12
-2 -1 -1 -1 -1 -0 -1 -1 -0 3 8 9 8 7 11 12 12 12 12 12 11 11 11 10 9 9 9 -3 -1 -0 0 -0 -0 -2 -8 -11 -10 -10 -10 -11 -10 -10 -11
-3 -3 -3 -3 -2 -1 -1 0 -1 0 6 8 7 7 10 10 12 12 12 11 12 11 10 10 9 8 6 -2 -0 0 0 0 -0 -1 -3 -9 -12 -13 -14 -13 -13 -13 -13
-4 -4 -4 -4 -4 -3 -2 -1 1 1 3 5 6 7 7 9 12 11 11 11 12 12 11 10 9 8 2 -1 0 0 0 0 0 -0 -2 -5 -10 -14 -15 -14 -13 -12 -12
-5 -5 -6 -6 -6 -5 -4 -3 -0 0 3 4 4 6 6 7 9 10 11 11 11 12 11 10 9 5 -2 -1 0 0 0 0 0 0 -1 -4 -9 -13 -14 -13 -14 -14 -15
-6 -6 -5 -4 -4 -4 -4 -4 -4 1 1 4 5 5 7 6 9 11 11 12 11 11 11 10 8 2 -2 -1 0 0 -0 -0 -0 -0 -1 -4 -9 -13 -14 -13 -14 -14 -17
-8 -8 -6 -6 -4 -3 -3 -4 -3 -4 0 1 4 6 7 7 8 10 11 11 11 10 10 9 8 1 -1 -0 -0 -0 -1 -1 -0 -1 -2 -5 -10 -13 -13 -13 -14 -14 -15
-9 -9 -6 -2 -1 -1 -1 -2 -2 -2 -3 3 5 7 8 9 10 10 11 11 10 10 9 9 5 0 -1 -1 -1 -1 -1 -1 -1 -1 -3 -7 -12 -13 -14 -14 -13 -12 -12
-9 -8 -1 -1 -1 -2 -3 -4 -1 -0 -2 1 7 8 9 10 9 11 11 10 10 10 8 7 2 -1 -1 -1 -1 -1 -1 -1 -1 -2 -4 -10 -13 -15 -16 -15 -13 -11 -10
-7 -2 -2 -1 -1 -3 -5 -5 -2 0 0 2 7 8 8 9 10 11 10 10 10 9 6 4 1 -1 -1 -2 -2 -2 -2 -2 -2 -3 -7 -13 -15 -17 -15 -13 -13 -14 -14
-3 -2 -1 -2 -2 -5 -7 -5 0 0 3 4 7 8 8 9 11 10 9 9 9 7 3 3 3 -1 -2 -3 -3 -2 -2 -2 -3 -7 -13 -16 -17 -15 -12 -13 -14 -16 -15
-2 -3 -3 -4 -5 -5 -5 -1 3 4 5 5 7 8 8 9 10 9 8 9 8 3 3 2 -2 -3 -3 -3 -3 -3 -3 -3 -6 -13 -17 -17 -13 -12 -12 -14 -16 -15 -14
-2 -0 -0 -1 -2 -4 -3 -2 5 5 5 6 7 8 9 9 8 8 8 6 5 4 4 -3 -4 -3 -4 -3 -3 -3 -3 -7 -12 -17 -16 -13 -13 -14 -15 -15 -14 -13 -12
2 1 2 3 3 2 0 2 6 6 6 7 8 9 9 8 8 6 5 5 3 2 -3 -2 -3 -4 -4 -3 -3 -3 -6 -13 -18 -15 -15 -16 -18 -16 -14 -13 -12 -10 -8
2 2 2 3 4 4 4 5 6 7 8 9 8 8 7 5 2 2 1 -1 -0 -0 -1 -5 -5 -5 -4 -3 -1 -7 -13 -17 -15 -18 -23 -23 -19 -15 -14 -11 -8 -8 -8
3 3 2 3 5 6 6 6 5 4 6 7 6 5 2 1 -1 -3 -2 1 -4 -5 -4 -6 -5 -4 -3 -2 -9 -15 -15 -15 -20 -24 -23 -22 -19 -17 -13 -10 -9 -8 -8
3 3 3 4 4 5 5 4 4 3 2 4 3 1 -1 -2 -2 -1 -3 -4 -4 -6 -6 -4 -4 -3 -3 -9 -16 -14 -16 -21 -23 -23 -24 -22 -16 -12 -11 -10 -9 -9 -8
3 3 3 3 3 3 3 3 3 0 2 1 -0 -0 -1 -1 -1 -1 -0 -1 0 -2 -1 -4 -4 -6 -13 -15 -14 -17 -23 -23 -23 -26 -26 -19 -13 -11 -10 -9 -8 -8 -9
0 1 2 3 2 1 0 1 -0 -0 -1 -4 -5 -3 -1 1 2 3 1 -1 0 -1 -4 -6 -13 -15 -14 -15 -19 -22 -22 -22 -26 -29 -22 -16 -13 -13 -9 -8 -8 -9 -10
-0 0 0 -0 0 -1 -1 -1 -1 -0 -0 1 2 2 3 3 2 -1 -1 -5 -7 -5 -9 -16 -14 -15 -17 -20 -22 -21 -22 -25 -24 -19 -15 -14 -10 -9 -9 -8 -9 -9 -10
-1 -1 -1 -1 -1 -1 -1 1 1 2 2 2 2 1 0 -0 -2 -6 -7 -6 -5 -14 -14 -14 -16 -18 -21 -21 -21 -21 -19 -14 -12 -13 -16 -14 -12 -9 -9 -9 -9 -9 -10
-0 -0 -0 -0 0 2 3 3 2 2 3 2 1 -1 -6 -8 -8 -6 -8 -13 -15 -13 -14 -16 -20 -21 -21 -21 -20 -16 -11 -10 -14 -19 -15 -12 -10 -9 -10 -10 -11 -10 -10
1 1 1 1 1 2 2 3 2 1 1 -4 -7 -8 -8 -7 -7 -12 -15 -14 -13 -14 -17 -22 -22 -22 -22 -23 -25 -24 -21 -22 -20 -16 -10 -9 -10 -14 -16 -15 -11 -13 -13
-1 1 1 1 1 0 -1 -1 -4 -8 -9 -8 -7 -7 -8 -11 -15 -15 -13 -13 -15 -19 -23 -23 -23 -23 -26 -30 -29 -25 -23 -20 -14 -11 -9 -10 -15 -17 -16 -16 -14 -12 -12
-8 -7 -7 -7 -8 -8 -8 -8 -6 -7 -6 -4 -5 -8 -11 -15 -14 -13 -14 -16 -20 -22 -22 -23 -26 -33 -32 -26 -22 -18 -14 -11 -10 -9 -12 -16 -18 -18 -17 -15 -12 -12 -11
-7 -8 -8 -8 -8 -8 -7 -7 -6 -5 -5 -7 -10 -14 -15 -14 -13 -14 -18 -21 -22 -23 -24 -29 -33 -24 -20 -16 -15 -14 -10 -10 -10 -13 -16 -17 -17 -16 -16 -13 -12 -11 -11
Wind_Speed
27 26 24 21 38 36 36 39 33 39 40 36 33 31 32 33 32 31 31 29 29 27 25 21 18 16 14 13 10 6 3 1 3 4 2 0 1 1 3 6 8 12 15
35 35 32 29 28 26 36 40 37 36 44 42 37 33 32 36 34 34 32 30 27 29 28 22 20 16 16 14 11 7 3 1 3 4 2 1 2 3 4 5 10 13 13
33 34 35 35 34 31 29 34 36 31 42 42 39 36 34 38 40 37 34 33 32 33 29 24 21 18 17 14 11 7 4 1 3 5 4 2 2 6 6 9 10 13 14
38 38 34 32 35 38 30 32 33 30 38 43 43 42 42 41 45 42 39 34 35 34 30 27 24 21 18 16 12 8 5 2 3 4 5 4 5 3 4 9 12 13 16
26 26 24 23 20 23 38 27 34 37 30 45 46 43 43 42 44 44 42 37 38 35 32 29 25 24 21 18 14 9 6 4 5 5 6 6 7 8 9 15 14 19 20
13 7 12 11 11 13 13 27 31 37 40 37 44 45 44 41 45 47 43 40 39 38 34 31 28 25 22 18 15 11 7 6 6 7 8 8 8 10 11 16 23 26 28
10 9 12 15 15 13 15 19 25 29 40 46 43 47 43 44 45 46 46 42 41 42 39 33 30 27 24 20 16 12 8 7 7 8 10 11 11 12 13 16 20 26 31
18 19 18 16 14 14 16 21 22 28 34 43 44 44 44 44 43 43 44 39 41 45 38 34 32 29 25 20 15 11 9 8 9 10 11 11 12 13 14 17 19 26 29
23 20 15 13 14 10 16 21 25 28 32 37 44 44 45 41 41 41 37 40 43 42 38 36 33 28 24 19 14 11 9 9 10 12 13 13 13 14 16 18 20 22 22
13 15 15 14 11 13 19 24 24 27 32 37 41 45 43 38 38 34 36 41 42 43 40 35 31 27 22 18 13 11 10 10 12 13 15 15 15 16 18 20 20 20 23
12 8 9 12 13 15 18 22 21 24 33 36 43 39 38 35 35 30 33 40 44 42 38 34 30 25 20 17 13 10 10 11 12 14 15 16 18 19 20 20 22 23 24
13 17 20 15 12 16 20 22 20 25 29 34 35 34 33 36 34 29 37 40 42 39 35 29 25 23 20 15 11 10 11 12 14 14 15 16 18 20 22 23 24 25 25
12 15 12 12 14 19 23 23 23 28 33 34 36 35 36 35 34 35 37 39 38 35 29 27 25 21 16 12 10 10 11 13 14 15 16 18 20 21 23 24 25 26 27
12 15 15 14 14 15 19 20 22 30 32 34 37 37 34 36 37 36 37 37 35 31 30 27 22 17 13 10 10 10 12 13 14 15 17 19 20 22 23 24 26 25 25
18 25 23 14 16 16 19 16 25 30 37 38 37 33 36 35 37 36 35 34 30 28 26 24 19 15 11 9 10 10 12 14 15 16 17 19 19 20 22 21 19 21 24
13 15 17 20 15 10 9 15 23 27 33 35 32 35 36 36 37 36 32 28 27 27 22 19 14 11 9 8 9 11 12 13 15 17 18 19 20 21 19 18 18 19 21
15 16 13 9 10 8 8 22 16 23 28 31 32 34 34 34 33 32 30 26 23 17 15 12 9 7 7 8 10 11 12 14 16 18 20 20 19 19 21 20 19 21 22
9 8 10 14 11 11 16 21 27 28 27 29 31 31 32 29 26 22 21 22 19 16 10 7 8 6 7 8 10 12 13 15 17 19 20 20 19 20 18 19 22 23 27
9 12 13 10 10 12 16 17 23 23 26 29 30 27 24 24 24 23 21 18 14 11 12 8 6 5 6 9 11 13 15 17 18 18 17 17 16 18 17 19 24 29 31
9 10 11 13 12 12 13 15 17 19 21 23 26 26 29 26 24 21 17 16 13 9 5 4 4 5 6 10 13 17 18 19 17 15 18 18 18 17 17 21 26 30 33
8 9 10 12 14 14 14 16 19 23 27 26 25 24 22 19 19 19 16 12 7 7 5 3 4 7 9 11 14 17 18 17 17 20 21 21 20 18 21 21 23 26 23
14 15 19 22 22 19 22 25 26 24 21 21 21 20 18 18 16 13 12 9 6 3 2 3 6 7 10 12 14 11 10 12 19 21 21 19 21 21 21 19 19 19 22
17 20 21 21 20 21 22 22 23 19 20 22 23 22 19 16 13 10 7 5 3 2 3 4 7 9 11 14 15 15 16 18 19 18 18 19 22 22 18 18 19 19 20
19 21 21 21 20 19 19 20 20 20 21 22 20 18 14 12 9 6 3 2 0 2 4 7 9 12 14 14 14 15 17 18 18 17 21 25 21 18 18 18 15 16 18
18 18 20 21 22 21 21 20 20 19 18 16 14 11 9 7 6 4 2 0 2 4 7 9 11 12 12 13 14 16 18 18 17 19 22 19 19 19 19 17 16 17 20
20 20 21 23 23 21 20 19 17 15 13 14 13 11 8 6 4 2 0 3 5 8 11 12 12 13 15 14 14 16 16 15 16 18 18 19 17 18 19 19 19 20 22
Wind_Direction
252 250 251 253 241 241 241 243 234 226 221 222 220 217 208 203 213 214 216 225 221 219 227 221 216 223 230 219 215 212 213 343 18 10 358 110 349 332 297 265 284 299 305
254 253 257 259 253 245 240 239 241 236 224 219 220 227 220 207 215 214 216 225 222 229 221 222 217 223 226 214 209 203 202 264 17 23 29 337 274 286 286 275 281 282 293
255 253 251 251 252 251 248 241 240 241 230 221 221 225 220 214 212 215 220 225 224 219 219 218 216 216 217 214 209 207 207 264 358 16 24 344 305 312 263 249 253 270 283
247 250 255 256 253 252 252 248 245 238 233 225 221 219 222 215 217 217 218 222 217 218 215 215 214 212 214 212 212 215 227 271 328 347 346 334 299 294 281 254 258 269 280
235 241 249 253 258 256 239 250 242 245 233 229 227 217 222 222 221 219 221 216 220 214 213 213 214 208 207 209 215 220 238 271 305 324 328 320 306 288 276 289 277 282 291
231 247 238 226 235 243 256 248 244 240 238 233 227 223 222 227 224 218 216 210 221 208 211 213 213 211 209 211 215 222 237 269 298 312 315 311 302 293 279 281 294 300 307
260 267 254 251 248 243 245 254 256 254 244 238 233 225 227 232 230 226 219 210 213 207 207 210 212 209 208 209 214 224 241 267 289 303 309 309 302 293 288 287 295 299 306
265 263 253 248 254 269 278 259 256 253 244 243 232 226 227 230 232 233 222 222 214 208 207 209 210 207 207 208 213 228 246 271 293 303 304 301 296 293 292 293 298 303 306
263 240 218 233 255 280 268 298 257 251 242 237 227 226 228 226 231 227 223 219 215 208 207 208 206 203 202 208 216 236 257 278 292 300 303 302 298 296 295 295 296 298 300
296 196 203 229 250 255 273 291 265 258 244 233 224 225 227 226 232 226 220 215 210 206 204 204 203 202 202 209 220 240 260 282 295 301 302 300 297 295 294 295 294 295 295
319 260 263 268 283 293 297 279 258 254 242 227 224 223 223 226 224 220 216 212 205 203 202 202 204 200 203 211 225 246 269 286 295 299 298 297 297 299 298 297 300 299 297
300 314 275 262 280 297 307 277 266 239 234 227 223 221 222 222 213 213 211 208 203 199 202 197 193 196 206 213 235 259 279 291 296 296 295 298 298 300 301 301 301 301 302
283 321 307 278 283 291 295 266 259 234 222 222 219 212 213 209 198 209 206 201 198 198 197 192 193 198 204 222 241 264 283 291 296 297 298 299 298 300 301 302 304 306 305
294 291 316 300 295 282 284 260 251 227 216 212 207 199 193 194 201 200 197 196 191 189 187 190 191 200 211 229 253 277 291 296 297 297 299 296 297 299 301 302 304 306 306
272 256 278 306 290 280 283 244 222 197 195 185 179 181 185 189 189 191 185 182 182 185 185 186 187 200 215 240 270 283 294 298 298 301 300 298 296 296 295 296 297 296 301
287 279 276 298 270 259 248 200 178 175 172 167 166 177 182 183 179 178 177 178 175 175 178 183 189 201 228 261 283 289 295 300 305 305 303 299 299 301 304 301 296 297 301
276 283 285 250 197 191 207 155 153 164 162 159 169 174 175 177 174 171 168 163 163 166 172 187 199 217 251 278 282 295 304 307 310 310 306 302 302 302 302 303 304 300 296
281 254 207 177 160 152 156 153 166 166 162 163 167 173 173 163 153 150 151 171 157 180 190 206 223 246 269 285 299 306 309 313 313 309 305 302 298 294 301 305 302 299 301
128 143 154 161 152 150 155 158 154 157 155 146 140 140 148 149 151 158 161 169 174 179 193 214 237 264 285 300 306 310 313 316 315 310 307 306 303 305 312 303 302 304 305
97 122 137 143 148 145 146 139 133 136 136 142 146 154 154 159 157 159 161 159 161 178 197 223 249 286 310 314 314 320 321 320 319 317 321 321 316 316 314 308 307 305 306
107 126 132 123 119 131 147 137 137 138 136 137 139 141 146 148 149 150 153 156 167 185 192 244 287 305 314 322 321 319 320 325 323 318 316 317 320 319 310 308 303 304 314
110 115 123 126 128 133 135 128 130 130 135 140 137 131 140 146 148 155 159 159 158 189 236 287 311 316 314 311 309 305 299 305 309 315 315 323 322 312 313 310 310 312 299
124 131 128 125 134 142 146 138 135 137 139 139 140 146 150 148 155 158 137 138 172 255 294 308 311 311 309 310 308 304 301 309 313 319 323 312 318 318 314 313 312 310 313
132 135 135 134 134 134 136 136 140 143 143 141 142 145 148 141 133 132 146 168 237 300 311 315 315 314 312 311 312 313 318 322 327 333 320 314 314 313 316 318 319 322 324
145 142 137 133 133 142 142 132 135 148 150 146 142 143 146 146 149 143 134 167 307 318 322 322 323 321 322 324 324 324 325 332 330 308 306 316 321 324 329 330 332 333 331
160 156 147 146 141 142 138 143 145 151 151 148 148 147 143 135 134 133 43 345 337 331 330 328 331 337 337 335 330 329 330 322 307 315 318 320 324 329 331 333 334 335 334
Height
1458 1461 1463 1464 1467 1470 1472 1474 1475 1474 1478 1483 1486 1490 1493 1497 1501 1504 1506 1507 1510 1513 1514 1515 1517 1519 1520 1521 1522 1523 1523 1523 1522 1522 1520 1520 1519 1519 1519 1519 1519 1518 1517
1451 1453 1455 1457 1459 1461 1464 1467 1469 1469 1468 1472 1478 1483 1486 1491 1496 1499 1501 1503 1507 1508 1510 1512 1513 1515 1517 1518 1519 1520 1521 1522 1521 1520 1519 1518 1519 1518 1517 1517 1518 1517 1515
1444 1446 1448 1449 1451 1453 1456 1459 1462 1464 1463 1466 1472 1476 1480 1485 1489 1492 1495 1497 1500 1502 1506 1508 1510 1512 1513 1515 1517 1518 1518 1519 1519 1518 1518 1517 1517 1516 1515 1514 1514 1514 1513
1436 1438 1441 1443 1445 1446 1449 1453 1455 1458 1458 1459 1462 1466 1470 1474 1479 1483 1486 1491 1495 1497 1501 1504 1507 1509 1510 1512 1514 1514 1515 1516 1516 1516 1515 1515 1515 1514 1513 1512 1511 1510 1510
1431 1433 1434 1435 1436 1438 1441 1444 1448 1451 1454 1451 1453 1458 1463 1468 1473 1477 1480 1485 1489 1493 1496 1500 1503 1505 1507 1508 1510 1511 1512 1512 1512 1512 1512 1511 1511 1510 1510 1506 1506 1506 1505
1428 1429 1430 1429 1430 1432 1433 1437 1440 1442 1445 1447 1448 1451 1455 1461 1465 1470 1473 1477 1483 1487 1491 1496 1499 1502 1504 1505 1507 1507 1509 1509 1509 1509 1508 1508 1507 1506 1506 1503 1500 1497 1495
1425 1426 1427 1427 1426 1426 1428 1431 1434 1435 1437 1437 1441 1443 1449 1453 1458 1464 1467 1469 1475 1480 1485 1490 1494 1497 1500 1501 1503 1504 1505 1506 1506 1506 1505 1504 1503 1502 1501 1499 1497 1492 1488
1421 1421 1421 1420 1420 1422 1424 1425 1426 1428 1430 1431 1434 1438 1440 1447 1454 1458 1461 1467 1469 1474 1481 1486 1490 1493 1496 1498 1500 1501 1501 1502 1502 1502 1502 1501 1500 1498 1496 1494 1492 1487 1483
1415 1415 1416 1416 1416 1417 1418 1419 1419 1420 1422 1423 1429 1432 1435 1442 1447 1451 1458 1463 1465 1471 1477 1482 1485 1489 1491 1495 1497 1498 1498 1498 1498 1498 1498 1497 1496 1494 1492 1490 1488 1484 1479
1410 1411 1410 1410 1411 1413 1411 1412 1413 1415 1416 1418 1421 1423 1431 1438 1442 1448 1452 1457 1461 1466 1472 1477 1482 1486 1488 1491 1493 1494 1495 1494 1494 1493 1493 1493 1492 1490 1488 1485 1483 1481 1477
1415 1411 1409 1407 1406 1407 1405 1406 1405 1409 1412 1413 1413 1419 1427 1434 1438 1443 1448 1452 1456 1462 1469 1473 1478 1483 1486 1489 1490 1491 1491 1490 1490 1489 1488 1488 1486 1485 1483 1480 1477 1475 1472
1413 1407 1406 1402 1401 1400 1401 1402 1401 1401 1408 1410 1410 1415 1423 1429 1434 1439 1443 1448 1452 1459 1465 1470 1474 1480 1482 1485 1487 1487 1487 1486 1485 1484 1483 1482 1481 1479 1478 1475 1472 1469 1467
1403 1404 1402 1399 1397 1396 1396 1395 1395 1397 1398 1403 1407 1412 1418 1424 1430 1434 1439 1444 1450 1456 1463 1469 1473 1476 1480 1482 1483 1483 1483 1482 1481 1479 1478 1477 1475 1474 1472 1469 1466 1463 1460
1400 1399 1398 1397 1396 1393 1390 1390 1391 1390 1393 1397 1402 1407 1414 1421 1426 1431 1437 1442 1448 1454 1461 1466 1470 1474 1477 1478 1479 1479 1478 1477 1477 1475 1473 1472 1470 1468 1466 1464 1460 1457 1453
1395 1397 1396 1395 1392 1390 1387 1385 1386 1384 1387 1392 1399 1404 1413 1418 1424 1429 1437 1443 1449 1454 1459 1464 1466 1471 1474 1475 1475 1474 1473 1472 1472 1471 1469 1467 1465 1463 1461 1458 1455 1453 1449
1395 1394 1393 1390 1390 1387 1385 1385 1386 1389 1384 1391 1394 1404 1410 1417 1423 1430 1439 1443 1451 1456 1459 1464 1465 1468 1470 1470 1470 1470 1468 1467 1466 1465 1464 1462 1459 1457 1455 1453 1451 1449 1444
1391 1390 1389 1388 1390 1387 1386 1381 1384 1386 1392 1391 1398 1405 1412 1420 1425 1431 1439 1445 1453 1460 1462 1464 1466 1466 1466 1466 1466 1465 1463 1463 1461 1460 1458 1455 1453 1452 1449 1447 1444 1442 1439
1386 1387 1386 1386 1389 1388 1388 1385 1385 1395 1392 1397 1402 1409 1416 1423 1431 1439 1445 1452 1445 1457 1460 1462 1466 1464 1463 1462 1462 1461 1460 1458 1457 1455 1452 1450 1448 1446 1444 1441 1438 1435 1432
1389 1388 1388 1389 1391 1392 1395 1395 1396 1396 1399 1403 1410 1418 1426 1430 1434 1437 1438 1448 1450 1455 1461 1463 1463 1462 1460 1458 1457 1457 1456 1454 1452 1450 1447 1445 1443 1440 1439 1437 1432 1428 1424
1395 1393 1393 1392 1394 1397 1400 1403 1404 1403 1407 1412 1414 1420 1425 1434 1437 1444 1447 1451 1454 1457 1459 1461 1462 1459 1457 1455 1453 1451 1451 1449 1448 1446 1443 1441 1438 1436 1434 1431 1426 1421 1417
1398 1397 1397 1398 1399 1402 1403 1404 1406 1409 1413 1419 1424 1429 1435 1440 1444 1447 1450 1452 1454 1457 1459 1459 1458 1456 1454 1452 1450 1449 1447 1445 1443 1440 1438 1436 1433 1432 1429 1425 1421 1416 1413
1403 1402 1402 1402 1402 1406 1408 1409 1413 1417 1421 1424 1429 1432 1440 1442 1447 1450 1451 1452 1453 1456 1456 1456 1454 1453 1451 1449 1448 1447 1445 1442 1439 1436 1433 1431 1429 1425 1421 1418 1414 1412 1407
1408 1408 1407 1408 1412 1414 1417 1417 1420 1424 1429 1433 1436 1441 1445 1447 1450 1452 1450 1451 1453 1453 1454 1453 1452 1450 1448 1446 1444 1442 1440 1437 1434 1431 1429 1427 1423 1418 1415 1412 1409 1405 1401
1414 1414 1415 1415 1418 1421 1423 1424 1427 1433 1436 1438 1440 1444 1447 1448 1449 1450 1451 1451 1452 1452 1451 1450 1448 1446 1444 1442 1440 1437 1434 1432 1429 1427 1424 1421 1417 1414 1411 1407 1404 1401 1398
1417 1419 1419 1420 1422 1425 1428 1431 1435 1438 1440 1442 1444 1446 1448 1449 1449 1450 1451 1451 1451 1451 1449 1447 1445 1443 1440 1438 1435 1433 1430 1428 1426 1424 1419 1415 1412 1408 1405 1402 1400 1397 1394
1421 1423 1425 1426 1428 1432 1435 1437 1440 1442 1443 1444 1447 1448 1449 1450 1450 1451 1451 1450 1449 1447 1446 1444 1441 1438 1436 1434 1431 1429 1427 1426 1422 1417 1414 1411 1408 1404 1401 1398 1395 1393 1389